THOR ABLESTAR DEB, 1521

Orbit data source: Space-Track

THOR ABLESTAR DEB, 1521 is space debris in LEO originally from a launch on Fri, 13 Aug 1965 UTC launched from the Air Force Western Test Range (AFWTR). Debris objects in space refer to the collection of defunct objects orbiting the Earth. Examples of debris include non-operational satellites, rocket bodies, and fragments generated from explosions, collisions, or faulty payload assembly.

Loading next visibility...
THOR ABLESTAR DEB details
Identifier
1521, 1965-065K
Orbit
LEO
Last TLE update5 hours ago
Origin
Flag of USNRL (US)
ManufacturerNRL
MissionSpacecraft
Bus & MotorUnknown
MassUnknown
Launch date (UTC)
1965-08-13 (59 years ago)
Launch vehicleUnknown
Launch site
Air Force Western Test Range (AFWTR)
Object type
Payload
Rocket body
Debris
Shape & HBRUnknown
Radar Cross SectionSmall (<0.1 m²)

Expand to show TLE details & history

TLE from 5 hours ago
0 THOR ABLESTAR DEB
1 01521U 65065K   25018.56645259  .00000038  00000-0  59274-4 0  9991
2 01521  89.9874 209.8550 0067589 267.4046 154.7757 13.33250867890831
Epoch: 2025-01-18T13:35Z
Definitive object data (Epoch: 2025-01-18T13:35:41.503Z)
Latitude62.59254°
Longitude-112.25765°
Altitude1,191.354 km
Speed7.241 km/s
True Right ascension13h 59m 31s
True Declination62° 27' 35"
Sunlit
Object was in daylight at TLE epoch
Visualization TLE readout
Latitude-57.87216°
Longitude-112.30203°
Altitude1,115.533 km
Speed7.314 km/s
Apparent Right ascension10h 10m 11s
Apparent Declination-61° 09' 45"
Sunlit
Object is in daylight
Visualization observer readout
Local Sidereal Time19:16:57
Azimuth216.527° SW
Elevation-56.232°
Doppler factor1
Orbital elements
Apogee altitude1,182.358 km
Perigee altitude1,080.843 km
Semi-major axis7,509.737 km
Eccentricity0.0067589
Inclination89.9874°
RAAN209.855°
Arg. of periapsis267.4046°
True anomaly155.10326°
Mean anomaly154.7757°
Eccentric anomaly154.93973°
Mean motion3.33508 °/min
BSTAR0.000059274
Orbital period107.94 mins
Loading maneuver chart data...
Loading historical data...
Loading historical data...
Loading historical data...
Loading historical data...
Loading historical data...
Loading historical data...
Loading historical data...

THOR ABLESTAR DEB Visibility forecast

Observer location: undefined°, undefined

Span
Click to sort rows by Start time (UTC) header in descending order
Start Az.
Max El. time (UTC)
Max El. Az.
Max El.
End time (UTC)
End Az.
13 mins2025-01-19 00:40:47.528Z7.145° NNE2025-01-19 00:47:47.528Z94.644° ESE43.037°2025-01-19 00:53:47.528Z172.294° S
7 mins2025-01-19 02:31:47.528Z318.721° NNW2025-01-19 02:34:47.528Z288.081° WNW19.403°2025-01-19 02:38:47.528Z249.619° W
4 mins2025-01-19 11:05:47.528Z79.497° E2025-01-19 11:06:47.528Z70.824° E12.19°2025-01-19 11:09:47.528Z45.323° ENE
13 mins2025-01-19 12:47:47.528Z169.342° S2025-01-19 12:53:47.528Z85.172° E44.411°2025-01-19 13:00:47.528Z0.716° NNE
7 mins2025-01-19 14:39:47.528Z258.537° W2025-01-19 14:42:47.528Z287.898° WNW16.657°2025-01-19 14:46:47.528Z322.612° NNW
|